Orbital Elements at Epoch 2459200.5 (2020-Dec-17.0) TDB
Reference: JPL 13 (heliocentric ecliptic J2000)
Element | Value | Uncertainty (1-sigma) | Units |
e | .119694748810007 | 4.3556e-08 | |
a | 2.269773619797717 | 9.8826e-09 | au |
q | 1.998093636520449 | 1.0135e-07 | au |
i | 3.191092011573869 | 5.6852e-06 | deg |
node | 164.2960553745523 | 8.3875e-05 | deg |
peri | 296.1756863872927 | 8.9367e-05 | deg |
M | 73.20536969484031 | 2.688e-05 | deg |
tp | 2458946.512302782853 (2020-Apr-07.01230278) | 9.3448e-05 | TDB |
period | 1249.028198058777 3.42 | 8.1574e-06 2.233e-08 | d yr |
n | .2882240773743197 | 1.8824e-09 | deg/d |
Q | 2.541453603074985 | 1.1066e-08 | au |
|
| | Orbit Determination Parameters
Additional Information
|